Change the Weather History Date:

Monday, January 7, 2013

  Actual Average Record
Temperature  
Mean Temperature 29 °F -  
Max Temperature 39 °F 36 °F 59 °F (2008)
Min Temperature 19 °F 21 °F 3 °F (2014)
Degree Days  
Heating Degree Days 36    
Moisture  
Dew Point 21 °F    
Average Humidity 76    
Maximum Humidity 96    
Minimum Humidity 46    
Precipitation  
Precipitation 0.00 in - - ()
Sea Level Pressure  
Sea Level Pressure 30.28 in    
Wind  
Wind Speed 3 mph (NNE)    
Max Wind Speed 10 mph    
Max Gust Speed -    
Visibility 9 miles    
Events      
Averages and records for this station are not official NWS values.
T = Trace of Precipitation, MM = Missing Value Source: NWS Daily Summary

Daily Weather History Graph

Daily Weather History Graph

Search for Another Location

Airport or City:

Trip Planner

Search our weather history database for the weather conditions in past years. The results will help you decide how hot, cold, wet, or windy it might be!

Date:

Astronomy

Jan. 07, 2013 Rise Set
Actual Time 7:19 AM EST 4:41 PM EST
Civil Twilight 6:48 AM EST 5:12 PM EST
Nautical Twilight 6:14 AM EST 5:46 PM EST
Astronomical Twilight 5:41 AM EST 6:19 PM EST
Moon 2:39 AM EST 12:50 PM EST
Length of Visible Light 10h 23m
Length of Day
9h 21m
Waning Crescent, 23% of the Moon is Illuminated
Jan 7
Waning Crescent
Jan 11
New
Jan 18
First Quarter
Jan 26
Full
Feb 3
Last Quarter

Hourly Weather History & Observations

Time (EST) Temp. Windchill Dew Point Humidity Pressure Visibility Wind Dir Wind Speed Gust Speed Precip Events Conditions
12:53 AM 26.1 °F 21.9 °F 21.0 °F 81% 30.05 in 9.0 mi SSW 3.5 mph - N/A   Clear
1:53 AM 27.0 °F 23.0 °F 24.1 °F 89% 30.07 in 9.0 mi SE 3.5 mph - N/A   Clear
2:53 AM 25.0 °F 20.7 °F 21.9 °F 88% 30.08 in 9.0 mi West 3.5 mph - N/A   Clear
3:53 AM 23.0 °F - 21.0 °F 92% 30.10 in 7.0 mi Calm Calm - N/A   Clear
4:53 AM 23.0 °F - 21.0 °F 92% 30.11 in 8.0 mi Calm Calm - N/A   Partly Cloudy
5:53 AM 23.0 °F - 21.0 °F 92% 30.16 in 7.0 mi Calm Calm - N/A   Scattered Clouds
6:53 AM 26.1 °F - 24.1 °F 92% 30.19 in 9.0 mi Calm Calm - N/A   Overcast
7:53 AM 27.0 °F - 25.0 °F 92% 30.22 in 7.0 mi Calm Calm - N/A   Scattered Clouds
8:53 AM 30.9 °F - 25.0 °F 79% 30.26 in 8.0 mi Calm Calm - N/A   Clear
9:53 AM 39.0 °F 32.8 °F 26.1 °F 60% 30.30 in 10.0 mi NNW 9.2 mph - N/A   Clear
10:53 AM 39.0 °F 32.3 °F 23.0 °F 53% 30.31 in 10.0 mi North 10.4 mph - N/A   Clear
11:53 AM 39.0 °F 32.3 °F 21.0 °F 49% 30.31 in 10.0 mi NNW 10.4 mph - N/A   Clear
12:53 PM 39.9 °F 36.7 °F 21.0 °F 47% 30.33 in 10.0 mi Variable 4.6 mph - N/A   Clear
1:53 PM 39.9 °F 36.7 °F 21.9 °F 49% 30.34 in 10.0 mi NNE 4.6 mph - N/A   Clear
2:53 PM 39.0 °F 35.7 °F 21.0 °F 49% 30.36 in 10.0 mi East 4.6 mph - N/A   Clear
3:53 PM 39.0 °F 35.7 °F 19.9 °F 46% 30.38 in 10.0 mi NE 4.6 mph - N/A   Clear
4:53 PM 30.9 °F - 21.9 °F 69% 30.40 in 10.0 mi Calm Calm - N/A   Clear
5:53 PM 28.9 °F - 21.0 °F 72% 30.40 in 10.0 mi Calm Calm - N/A   Clear
6:53 PM 27.0 °F 23.0 °F 21.0 °F 78% 30.41 in 10.0 mi South 3.5 mph - N/A   Clear
7:53 PM 24.1 °F - 19.0 °F 81% 30.40 in 10.0 mi Calm Calm - N/A   Clear
8:53 PM 23.0 °F - 19.9 °F 88% 30.40 in 10.0 mi Calm Calm - N/A   Clear
9:53 PM 21.9 °F - 19.0 °F 89% 30.40 in 10.0 mi Calm Calm - N/A   Clear
10:53 PM 19.9 °F - 18.0 °F 92% 30.39 in 10.0 mi Calm Calm - N/A   Clear
11:53 PM 19.0 °F - 18.0 °F 96% 30.39 in 9.0 mi Calm Calm - N/A   Clear